Wetterdaten: Woche 05.11.18 - 11.11.18 (KW45)
Datum Zeit Temp. I. Temp. A. Feuchte I. Feuchte A. Luftdruck Regen Wind Richtung Sonnenschein UV Solar Taupunkt Windchill Windben
05.11.2018 00:00 24,1 C 10,2 C 62 % 94 % 1013,9 hPa 0,0 l/m 0,9 km/h (0 Bft) O-NO 0,00 h 0,0 UV-I 0 W/m 9,2 C 10,2 C 3,6 km/h (1 Bft)
05.11.2018 01:00 23,9 C 10,2 C 62 % 94 % 1013,6 hPa 0,0 l/m 1,2 km/h (1 Bft) O-NO 0,00 h 0,0 UV-I 0 W/m 9,3 C 10,2 C 4,4 km/h (1 Bft)
05.11.2018 02:00 23,8 C 10,1 C 63 % 94 % 1013,4 hPa 0,0 l/m 1,3 km/h (1 Bft) O-NO 0,00 h 0,0 UV-I 0 W/m 9,2 C 10,1 C 4,7 km/h (1 Bft)
05.11.2018 03:00 23,7 C 9,8 C 63 % 94 % 1012,8 hPa 0,0 l/m 2,3 km/h (1 Bft) O-NO 0,00 h 0,0 UV-I 0 W/m 8,9 C 9,8 C 7,1 km/h (2 Bft)
05.11.2018 04:00 23,7 C 9,6 C 63 % 94 % 1012,6 hPa 0,0 l/m 1,8 km/h (1 Bft) O-NO 0,00 h 0,0 UV-I 0 W/m 8,7 C 9,6 C 5,6 km/h (1 Bft)
05.11.2018 05:00 23,7 C 9,7 C 63 % 94 % 1012,5 hPa 0,0 l/m 3,1 km/h (1 Bft) O-NO 0,00 h 0,0 UV-I 0 W/m 8,8 C 9,6 C 9,7 km/h (2 Bft)
05.11.2018 06:00 23,9 C 9,8 C 63 % 94 % 1012,4 hPa 0,0 l/m 2,1 km/h (1 Bft) O-NO 0,00 h 0,0 UV-I 0 W/m 8,8 C 9,7 C 8,7 km/h (2 Bft)
05.11.2018 07:00 24,1 C 9,7 C 62 % 93 % 1012,5 hPa 0,0 l/m 1,7 km/h (1 Bft) O-NO 0,00 h 0,0 UV-I 20 W/m 8,7 C 9,6 C 6,6 km/h (2 Bft)
05.11.2018 08:00 24,1 C 10,0 C 61 % 93 % 1012,5 hPa 0,0 l/m 1,6 km/h (1 Bft) O-NO 0,00 h 0,0 UV-I 56 W/m 8,9 C 9,9 C 6,5 km/h (2 Bft)
05.11.2018 09:00 24,1 C 10,5 C 59 % 91 % 1012,6 hPa 0,0 l/m 3,7 km/h (1 Bft) O 0,00 h 0,5 UV-I 98 W/m 9,1 C 10,2 C 11,2 km/h (2 Bft)
05.11.2018 10:00 24,2 C 10,8 C 59 % 90 % 1012,2 hPa 0,0 l/m 2,8 km/h (1 Bft) O-NO 0,10 h 0,8 UV-I 130 W/m 9,2 C 10,7 C 9,2 km/h (2 Bft)
05.11.2018 11:00 24,2 C 11,2 C 59 % 88 % 1012,3 hPa 0,0 l/m 2,2 km/h (1 Bft) O 0,13 h 0,7 UV-I 119 W/m 9,4 C 11,1 C 7,5 km/h (2 Bft)
05.11.2018 12:00 24,3 C 11,6 C 59 % 86 % 1011,6 hPa 0,0 l/m 2,7 km/h (1 Bft) O-NO 0,52 h 0,9 UV-I 150 W/m 9,4 C 11,5 C 9,8 km/h (2 Bft)
05.11.2018 13:00 24,3 C 11,8 C 59 % 85 % 1011,0 hPa 0,0 l/m 4,1 km/h (1 Bft) O-NO 0,00 h 0,7 UV-I 125 W/m 9,4 C 11,4 C 10,9 km/h (2 Bft)
05.11.2018 14:00 24,3 C 12,1 C 59 % 85 % 1010,6 hPa 0,0 l/m 0,4 km/h (0 Bft) O 0,00 h 0,5 UV-I 93 W/m 9,6 C 12,1 C 1,8 km/h (1 Bft)
05.11.2018 15:00 24,2 C 12,9 C 51 % 84 % 1010,3 hPa 0,0 l/m 0,7 km/h (0 Bft) O 0,22 h 0,0 UV-I 127 W/m 10,2 C 12,9 C 3,1 km/h (1 Bft)
05.11.2018 16:00 24,1 C 12,6 C 53 % 83 % 1010,2 hPa 0,0 l/m 0,1 km/h (0 Bft) NO 0,00 h 0,0 UV-I 28 W/m 9,8 C 12,6 C 0,9 km/h (0 Bft)
05.11.2018 17:00 24,1 C 11,2 C 54 % 87 % 1010,3 hPa 0,0 l/m 1,5 km/h (1 Bft) NO 0,00 h 0,0 UV-I 0 W/m 9,2 C 11,2 C 4,6 km/h (1 Bft)
05.11.2018 18:00 24,1 C 10,4 C 56 % 89 % 1010,5 hPa 0,0 l/m 0,2 km/h (0 Bft) O-NO 0,00 h 0,0 UV-I 0 W/m 8,8 C 10,4 C 0,9 km/h (0 Bft)
05.11.2018 19:00 24,0 C 9,9 C 57 % 91 % 1010,4 hPa 0,0 l/m 1,7 km/h (1 Bft) O-NO 0,00 h 0,0 UV-I 0 W/m 8,5 C 9,9 C 5,3 km/h (1 Bft)
05.11.2018 20:00 24,0 C 9,7 C 57 % 92 % 1010,5 hPa 0,0 l/m 3,5 km/h (1 Bft) O-NO 0,00 h 0,0 UV-I 0 W/m 8,5 C 9,6 C 10,4 km/h (2 Bft)
05.11.2018 21:00 24,1 C 9,4 C 57 % 92 % 1010,8 hPa 0,0 l/m 3,8 km/h (1 Bft) O-NO 0,00 h 0,0 UV-I 0 W/m 8,2 C 9,3 C 10,9 km/h (2 Bft)
05.11.2018 22:00 24,1 C 9,1 C 58 % 93 % 1011,0 hPa 0,0 l/m 4,6 km/h (1 Bft) O-NO 0,00 h 0,0 UV-I 0 W/m 8,0 C 8,8 C 11,5 km/h (2 Bft)
05.11.2018 23:00 24,1 C 8,8 C 58 % 94 % 1011,1 hPa 0,0 l/m 2,5 km/h (1 Bft) O-NO 0,00 h 0,0 UV-I 0 W/m 7,8 C 8,8 C 8,4 km/h (2 Bft)
06.11.2018 00:00 23,9 C 8,8 C 59 % 94 % 1011,2 hPa 0,0 l/m 3,1 km/h (1 Bft) O-NO 0,00 h 0,0 UV-I 0 W/m 8,0 C 8,7 C 9,5 km/h (2 Bft)
06.11.2018 01:00 23,8 C 8,8 C 61 % 95 % 1011,2 hPa 0,0 l/m 2,4 km/h (1 Bft) O-NO 0,00 h 0,0 UV-I 0 W/m 8,0 C 8,7 C 7,4 km/h (2 Bft)
06.11.2018 02:00 23,7 C 8,7 C 61 % 95 % 1011,3 hPa 0,0 l/m 1,0 km/h (0 Bft) O-NO 0,00 h 0,0 UV-I 0 W/m 7,9 C 8,7 C 4,7 km/h (1 Bft)
06.11.2018 03:00 23,6 C 8,0 C 62 % 94 % 1011,2 hPa 0,0 l/m 0,2 km/h (0 Bft) O-NO 0,00 h 0,0 UV-I 0 W/m 7,1 C 8,0 C 1,2 km/h (1 Bft)
06.11.2018 04:00 23,6 C 7,6 C 62 % 95 % 1011,3 hPa 0,0 l/m 0,7 km/h (0 Bft) O-NO 0,00 h 0,0 UV-I 0 W/m 6,8 C 7,6 C 3,1 km/h (1 Bft)
06.11.2018 05:00 23,6 C 7,9 C 62 % 96 % 1011,5 hPa 0,0 l/m 1,8 km/h (1 Bft) O-NO 0,00 h 0,0 UV-I 0 W/m 7,3 C 7,9 C 6,4 km/h (2 Bft)
06.11.2018 06:00 23,8 C 8,3 C 61 % 96 % 1011,6 hPa 0,0 l/m 3,0 km/h (1 Bft) O-NO 0,00 h 0,0 UV-I 0 W/m 7,7 C 8,1 C 10,1 km/h (2 Bft)
06.11.2018 07:00 23,8 C 8,2 C 61 % 96 % 1012,0 hPa 0,0 l/m 2,6 km/h (1 Bft) O-NO 0,00 h 0,0 UV-I 20 W/m 7,6 C 8,2 C 9,6 km/h (2 Bft)
06.11.2018 08:00 24,0 C 9,1 C 60 % 96 % 1012,2 hPa 0,0 l/m 1,6 km/h (1 Bft) NO 0,13 h 0,5 UV-I 109 W/m 8,5 C 9,1 C 6,2 km/h (2 Bft)
06.11.2018 09:00 24,5 C 11,3 C 59 % 90 % 1012,2 hPa 0,0 l/m 2,5 km/h (1 Bft) O-NO 0,98 h 0,8 UV-I 238 W/m 9,6 C 11,2 C 7,8 km/h (2 Bft)
06.11.2018 10:00 25,2 C 13,1 C 56 % 82 % 1012,0 hPa 0,0 l/m 3,9 km/h (1 Bft) NO 1,00 h 1,2 UV-I 337 W/m 10,0 C 12,9 C 10,0 km/h (2 Bft)
06.11.2018 11:00 25,8 C 13,9 C 54 % 78 % 1011,5 hPa 0,0 l/m 4,9 km/h (1 Bft) O-NO 1,00 h 1,4 UV-I 379 W/m 10,0 C 13,5 C 12,4 km/h (3 Bft)
06.11.2018 12:00 26,2 C 13,8 C 54 % 77 % 1011,1 hPa 0,0 l/m 6,9 km/h (2 Bft) NO 1,00 h 1,4 UV-I 349 W/m 9,8 C 12,9 C 16,4 km/h (3 Bft)
06.11.2018 13:00 26,1 C 13,2 C 54 % 78 % 1010,7 hPa 0,0 l/m 6,8 km/h (2 Bft) O-NO 1,00 h 1,0 UV-I 266 W/m 9,4 C 12,3 C 15,1 km/h (3 Bft)
06.11.2018 14:00 25,8 C 11,4 C 55 % 82 % 1010,6 hPa 0,0 l/m 4,4 km/h (1 Bft) O-NO 0,55 h 0,7 UV-I 164 W/m 8,5 C 10,9 C 12,5 km/h (3 Bft)
06.11.2018 15:00 25,3 C 10,3 C 56 % 87 % 1010,4 hPa 0,0 l/m 3,0 km/h (1 Bft) O-NO 0,00 h 0,5 UV-I 58 W/m 8,1 C 10,1 C 8,6 km/h (2 Bft)
06.11.2018 16:00 24,9 C 10,0 C 57 % 89 % 1010,2 hPa 0,0 l/m 2,4 km/h (1 Bft) O-NO 0,00 h 0,0 UV-I 12 W/m 8,3 C 9,9 C 8,1 km/h (2 Bft)
06.11.2018 17:00 24,5 C 9,7 C 58 % 91 % 1010,2 hPa 0,0 l/m 3,9 km/h (1 Bft) NO 0,00 h 0,0 UV-I 0 W/m 8,3 C 9,4 C 10,6 km/h (2 Bft)
06.11.2018 18:00 23,7 C 9,7 C 60 % 93 % 1010,2 hPa 0,0 l/m 0,6 km/h (0 Bft) NO 0,00 h 0,0 UV-I 0 W/m 8,6 C 9,7 C 3,0 km/h (1 Bft)
06.11.2018 19:00 23,5 C 9,8 C 60 % 93 % 1010,1 hPa 0,0 l/m 0,6 km/h (0 Bft) O-NO 0,00 h 0,0 UV-I 0 W/m 8,8 C 9,8 C 3,8 km/h (1 Bft)
06.11.2018 20:00 23,4 C 8,6 C 61 % 91 % 1010,2 hPa 0,0 l/m 0,0 km/h (0 Bft) N 0,00 h 0,0 UV-I 0 W/m 7,2 C 8,6 C 0,0 km/h (0 Bft)
06.11.2018 21:00 23,9 C 7,2 C 60 % 91 % 1010,5 hPa 0,0 l/m 0,0 km/h (0 Bft) N 0,00 h 0,0 UV-I 0 W/m 5,9 C 7,2 C 0,1 km/h (0 Bft)
06.11.2018 22:00 24,0 C 6,8 C 59 % 93 % 1010,3 hPa 0,0 l/m 0,2 km/h (0 Bft) O-NO 0,00 h 0,0 UV-I 0 W/m 5,8 C 6,8 C 1,7 km/h (1 Bft)
06.11.2018 23:00 23,9 C 7,5 C 60 % 95 % 1010,8 hPa 0,0 l/m 0,0 km/h (0 Bft) N 0,00 h 0,0 UV-I 0 W/m 6,7 C 7,5 C 0,0 km/h (0 Bft)
07.11.2018 00:00 23,8 C 7,0 C 61 % 95 % 1011,1 hPa 0,0 l/m 0,0 km/h (0 Bft) N 0,00 h 0,0 UV-I 0 W/m 6,2 C 7,0 C 0,0 km/h (0 Bft)
07.11.2018 01:00 23,6 C 5,9 C 62 % 94 % 1011,3 hPa 0,0 l/m 0,0 km/h (0 Bft) N 0,00 h 0,0 UV-I 0 W/m 5,0 C 5,9 C 0,0 km/h (0 Bft)
07.11.2018 02:00 23,4 C 4,9 C 63 % 94 % 1011,5 hPa 0,0 l/m 0,0 km/h (0 Bft) N 0,00 h 0,0 UV-I 0 W/m 4,0 C 4,9 C 0,0 km/h (0 Bft)
07.11.2018 03:00 23,4 C 4,4 C 63 % 95 % 1011,5 hPa 0,0 l/m 0,0 km/h (0 Bft) N 0,00 h 0,0 UV-I 0 W/m 3,6 C 4,4 C 0,0 km/h (0 Bft)
07.11.2018 04:00 23,3 C 3,8 C 64 % 95 % 1011,6 hPa 0,0 l/m 0,0 km/h (0 Bft) N 0,00 h 0,0 UV-I 0 W/m 3,1 C 3,8 C 0,0 km/h (0 Bft)
07.11.2018 05:00 23,3 C 3,6 C 63 % 95 % 1011,8 hPa 0,0 l/m 0,0 km/h (0 Bft) N 0,00 h 0,0 UV-I 0 W/m 2,8 C 3,6 C 0,0 km/h (0 Bft)
07.11.2018 06:00 23,5 C 3,4 C 63 % 95 % 1012,0 hPa 0,2 l/m 0,0 km/h (0 Bft) N 0,00 h 0,0 UV-I 0 W/m 2,7 C 3,4 C 0,0 km/h (0 Bft)
07.11.2018 07:00 23,8 C 3,1 C 61 % 95 % 1012,5 hPa 0,0 l/m 0,0 km/h (0 Bft) N 0,00 h 0,0 UV-I 20 W/m 2,4 C 3,1 C 0,0 km/h (0 Bft)
07.11.2018 08:00 23,7 C 3,7 C 61 % 96 % 1012,9 hPa 0,0 l/m 0,0 km/h (0 Bft) N 0,00 h 0,0 UV-I 58 W/m 3,1 C 3,7 C 0,0 km/h (0 Bft)
07.11.2018 09:00 23,9 C 5,3 C 59 % 97 % 1013,0 hPa 0,0 l/m 0,0 km/h (0 Bft) N 0,37 h 0,6 UV-I 148 W/m 4,8 C 5,3 C 0,0 km/h (0 Bft)
07.11.2018 10:00 24,2 C 7,8 C 59 % 97 % 1013,2 hPa 0,0 l/m 0,0 km/h (0 Bft) N 0,85 h 0,9 UV-I 178 W/m 7,4 C 7,8 C 0,0 km/h (0 Bft)
07.11.2018 11:00 24,5 C 9,1 C 58 % 97 % 1013,2 hPa 0,0 l/m 0,1 km/h (0 Bft) W-NW 0,32 h 0,8 UV-I 139 W/m 8,6 C 9,1 C 0,3 km/h (0 Bft)
07.11.2018 12:00 24,6 C 10,8 C 57 % 96 % 1012,9 hPa 0,0 l/m 0,2 km/h (0 Bft) O-NO 0,85 h 1,0 UV-I 207 W/m 10,2 C 10,8 C 0,8 km/h (0 Bft)
07.11.2018 13:00 24,8 C 13,4 C 57 % 85 % 1012,7 hPa 0,0 l/m 1,2 km/h (1 Bft) NO 1,00 h 0,9 UV-I 240 W/m 10,9 C 13,4 C 3,7 km/h (1 Bft)
07.11.2018 14:00 25,0 C 14,6 C 53 % 79 % 1012,6 hPa 0,0 l/m 0,9 km/h (0 Bft) NO 1,00 h 0,7 UV-I 220 W/m 11,0 C 14,6 C 3,2 km/h (1 Bft)
07.11.2018 15:00 25,1 C 13,9 C 53 % 78 % 1012,9 hPa 0,0 l/m 2,0 km/h (1 Bft) O-NO 0,10 h 0,5 UV-I 101 W/m 10,2 C 13,9 C 6,4 km/h (2 Bft)
07.11.2018 16:00 24,9 C 11,4 C 54 % 85 % 1013,1 hPa 0,0 l/m 0,7 km/h (0 Bft) O-NO 0,00 h 0,0 UV-I 18 W/m 8,9 C 11,4 C 3,3 km/h (1 Bft)
07.11.2018 17:00 24,7 C 9,8 C 55 % 89 % 1013,6 hPa 0,0 l/m 0,0 km/h (0 Bft) O-NO 0,00 h 0,0 UV-I 0 W/m 8,0 C 9,8 C 0,4 km/h (0 Bft)
07.11.2018 18:00 24,6 C 8,9 C 56 % 91 % 1014,1 hPa 0,0 l/m 0,3 km/h (0 Bft) O-NO 0,00 h 0,0 UV-I 0 W/m 7,5 C 8,9 C 1,7 km/h (1 Bft)
07.11.2018 19:00 24,3 C 8,3 C 57 % 92 % 1014,6 hPa 0,0 l/m 0,1 km/h (0 Bft) O-NO 0,00 h 0,0 UV-I 0 W/m 7,2 C 8,3 C 0,6 km/h (0 Bft)
07.11.2018 20:00 24,2 C 7,3 C 57 % 92 % 1015,4 hPa 0,0 l/m 0,0 km/h (0 Bft) N 0,00 h 0,0 UV-I 0 W/m 6,0 C 7,3 C 0,0 km/h (0 Bft)
07.11.2018 21:00 24,1 C 6,2 C 58 % 92 % 1016,2 hPa 0,0 l/m 0,0 km/h (0 Bft) N 0,00 h 0,0 UV-I 0 W/m 5,0 C 6,2 C 0,0 km/h (0 Bft)
07.11.2018 22:00 24,1 C 5,8 C 58 % 93 % 1016,6 hPa 0,0 l/m 0,0 km/h (0 Bft) N 0,00 h 0,0 UV-I 0 W/m 4,8 C 5,8 C 0,0 km/h (0 Bft)
07.11.2018 23:00 24,1 C 6,2 C 58 % 95 % 1017,3 hPa 0,0 l/m 0,0 km/h (0 Bft) N 0,00 h 0,0 UV-I 0 W/m 5,4 C 6,2 C 0,0 km/h (0 Bft)
08.11.2018 00:00 23,9 C 6,5 C 59 % 95 % 1017,7 hPa 0,0 l/m 0,0 km/h (0 Bft) N 0,00 h 0,0 UV-I 0 W/m 5,8 C 6,5 C 0,0 km/h (0 Bft)
08.11.2018 01:00 23,8 C 6,6 C 60 % 95 % 1018,2 hPa 0,0 l/m 0,0 km/h (0 Bft) N 0,00 h 0,0 UV-I 0 W/m 5,9 C 6,6 C 0,0 km/h (0 Bft)
08.11.2018 02:00 23,7 C 6,4 C 61 % 96 % 1018,9 hPa 0,0 l/m 0,0 km/h (0 Bft) N 0,00 h 0,0 UV-I 0 W/m 5,8 C 6,4 C 0,0 km/h (0 Bft)
08.11.2018 03:00 23,7 C 6,4 C 61 % 96 % 1019,2 hPa 0,0 l/m 0,0 km/h (0 Bft) N 0,00 h 0,0 UV-I 0 W/m 5,8 C 6,4 C 0,0 km/h (0 Bft)
08.11.2018 04:00 23,7 C 6,2 C 62 % 96 % 1019,8 hPa 0,0 l/m 0,0 km/h (0 Bft) N 0,00 h 0,0 UV-I 0 W/m 5,6 C 6,2 C 0,0 km/h (0 Bft)
08.11.2018 05:00 23,7 C 6,1 C 62 % 96 % 1020,3 hPa 0,0 l/m 0,0 km/h (0 Bft) N 0,00 h 0,0 UV-I 0 W/m 5,5 C 6,1 C 0,0 km/h (0 Bft)
08.11.2018 06:00 24,0 C 5,9 C 61 % 96 % 1021,0 hPa 0,0 l/m 0,0 km/h (0 Bft) N 0,00 h 0,0 UV-I 0 W/m 5,4 C 5,9 C 0,0 km/h (0 Bft)
08.11.2018 07:00 24,0 C 5,5 C 61 % 96 % 1021,7 hPa 0,0 l/m 0,0 km/h (0 Bft) N 0,00 h 0,0 UV-I 9 W/m 4,9 C 5,5 C 0,0 km/h (0 Bft)
08.11.2018 08:00 23,9 C 5,6 C 60 % 97 % 1022,2 hPa 0,0 l/m 0,0 km/h (0 Bft) N 0,28 h 0,0 UV-I 101 W/m 5,1 C 5,6 C 0,0 km/h (0 Bft)
08.11.2018 09:00 24,0 C 7,4 C 55 % 97 % 1022,5 hPa 0,0 l/m 0,0 km/h (0 Bft) N 0,75 h 0,6 UV-I 175 W/m 6,9 C 7,4 C 0,0 km/h (0 Bft)
08.11.2018 10:00 24,5 C 9,2 C 56 % 96 % 1022,6 hPa 0,0 l/m 0,0 km/h (0 Bft) N 1,00 h 1,0 UV-I 246 W/m 8,7 C 9,2 C 0,1 km/h (0 Bft)
08.11.2018 11:00 24,8 C 11,0 C 56 % 90 % 1022,6 hPa 0,0 l/m 0,0 km/h (0 Bft) N 1,00 h 1,0 UV-I 189 W/m 9,4 C 11,0 C 0,0 km/h (0 Bft)
08.11.2018 12:00 24,8 C 12,1 C 56 % 85 % 1022,3 hPa 0,0 l/m 0,0 km/h (0 Bft) N 0,98 h 0,9 UV-I 191 W/m 9,6 C 12,1 C 0,0 km/h (0 Bft)
08.11.2018 13:00 24,8 C 12,5 C 56 % 81 % 1021,9 hPa 0,0 l/m 0,0 km/h (0 Bft) N 0,00 h 0,6 UV-I 98 W/m 9,3 C 12,5 C 0,0 km/h (0 Bft)
08.11.2018 14:00 24,7 C 12,4 C 55 % 82 % 1021,7 hPa 0,0 l/m 0,1 km/h (0 Bft) N-NW 0,00 h 0,5 UV-I 85 W/m 9,5 C 12,4 C 0,3 km/h (0 Bft)
08.11.2018 15:00 24,2 C 12,3 C 48 % 82 % 1021,5 hPa 0,0 l/m 0,1 km/h (0 Bft) N-NO 0,00 h 0,0 UV-I 35 W/m 9,3 C 12,3 C 0,4 km/h (0 Bft)
08.11.2018 16:00 24,1 C 11,6 C 51 % 83 % 1021,3 hPa 0,0 l/m 0,0 km/h (0 Bft) N 0,00 h 0,0 UV-I 17 W/m 8,8 C 11,6 C 0,0 km/h (0 Bft)
08.11.2018 17:00 24,1 C 10,3 C 54 % 84 % 1021,2 hPa 0,0 l/m 0,0 km/h (0 Bft) N 0,00 h 0,0 UV-I 0 W/m 7,8 C 10,3 C 0,0 km/h (0 Bft)
08.11.2018 18:00 24,1 C 9,3 C 59 % 89 % 1021,3 hPa 0,0 l/m 0,0 km/h (0 Bft) N 0,00 h 0,0 UV-I 0 W/m 7,6 C 9,3 C 0,1 km/h (0 Bft)
08.11.2018 19:00 24,1 C 8,8 C 61 % 91 % 1021,0 hPa 0,0 l/m 0,0 km/h (0 Bft) N 0,00 h 0,0 UV-I 0 W/m 7,4 C 8,8 C 0,0 km/h (0 Bft)
08.11.2018 20:00 24,1 C 8,8 C 60 % 92 % 1020,5 hPa 0,0 l/m 0,1 km/h (0 Bft) O-NO 0,00 h 0,0 UV-I 0 W/m 7,6 C 8,8 C 0,3 km/h (0 Bft)
08.11.2018 21:00 24,1 C 9,7 C 59 % 91 % 1020,0 hPa 0,0 l/m 1,2 km/h (1 Bft) O-NO 0,00 h 0,0 UV-I 0 W/m 8,3 C 9,7 C 4,8 km/h (1 Bft)
08.11.2018 22:00 24,2 C 9,8 C 59 % 88 % 1019,8 hPa 0,0 l/m 1,0 km/h (0 Bft) NO 0,00 h 0,0 UV-I 0 W/m 7,9 C 9,8 C 3,6 km/h (1 Bft)
08.11.2018 23:00 24,1 C 9,0 C 59 % 89 % 1019,4 hPa 0,0 l/m 0,1 km/h (0 Bft) N-NO 0,00 h 0,0 UV-I 0 W/m 7,4 C 9,0 C 1,1 km/h (1 Bft)
09.11.2018 00:00 24,0 C 8,7 C 60 % 91 % 1018,8 hPa 0,0 l/m 0,6 km/h (0 Bft) O-NO 0,00 h 0,0 UV-I 0 W/m 7,3 C 8,7 C 2,3 km/h (1 Bft)
09.11.2018 01:00 23,9 C 8,8 C 61 % 90 % 1018,1 hPa 0,0 l/m 0,5 km/h (0 Bft) NO 0,00 h 0,0 UV-I 0 W/m 7,3 C 8,8 C 2,1 km/h (1 Bft)
09.11.2018 02:00 23,8 C 8,9 C 62 % 91 % 1017,6 hPa 0,0 l/m 1,3 km/h (1 Bft) O-NO 0,00 h 0,0 UV-I 0 W/m 7,5 C 8,9 C 3,9 km/h (1 Bft)
09.11.2018 03:00 23,8 C 8,9 C 62 % 91 % 1017,5 hPa 0,0 l/m 0,4 km/h (0 Bft) NO 0,00 h 0,0 UV-I 0 W/m 7,5 C 8,9 C 1,7 km/h (1 Bft)
09.11.2018 04:00 23,8 C 8,9 C 62 % 90 % 1017,4 hPa 0,0 l/m 0,2 km/h (0 Bft) NO 0,00 h 0,0 UV-I 0 W/m 7,4 C 8,9 C 1,1 km/h (0 Bft)
09.11.2018 05:00 23,8 C 8,8 C 62 % 90 % 1017,5 hPa 0,0 l/m 0,1 km/h (0 Bft) O-NO 0,00 h 0,0 UV-I 0 W/m 7,3 C 8,8 C 0,3 km/h (0 Bft)
09.11.2018 06:00 23,9 C 8,6 C 61 % 90 % 1017,5 hPa 0,0 l/m 0,0 km/h (0 Bft) N 0,00 h 0,0 UV-I 0 W/m 7,1 C 8,6 C 0,0 km/h (0 Bft)
09.11.2018 07:00 24,0 C 8,4 C 61 % 90 % 1017,7 hPa 0,0 l/m 0,0 km/h (0 Bft) O-SO 0,00 h 0,0 UV-I 8 W/m 6,9 C 8,4 C 0,1 km/h (0 Bft)
09.11.2018 08:00 24,1 C 8,6 C 61 % 91 % 1018,0 hPa 0,0 l/m 0,1 km/h (0 Bft) SO 0,00 h 0,0 UV-I 28 W/m 7,2 C 8,6 C 0,2 km/h (0 Bft)
09.11.2018 09:00 24,0 C 8,7 C 60 % 91 % 1018,2 hPa 0,0 l/m 0,3 km/h (0 Bft) SO 0,00 h 0,0 UV-I 35 W/m 7,3 C 8,7 C 0,8 km/h (0 Bft)
09.11.2018 10:00 24,0 C 8,9 C 60 % 90 % 1018,0 hPa 0,0 l/m 0,2 km/h (0 Bft) SO 0,00 h 0,0 UV-I 44 W/m 7,3 C 8,9 C 0,4 km/h (0 Bft)
09.11.2018 11:00 24,0 C 9,1 C 61 % 89 % 1017,6 hPa 0,0 l/m 0,1 km/h (0 Bft) S 0,00 h 0,5 UV-I 65 W/m 7,3 C 9,1 C 0,4 km/h (0 Bft)
09.11.2018 12:00 24,0 C 9,3 C 60 % 88 % 1017,1 hPa 0,0 l/m 0,3 km/h (0 Bft) S 0,00 h 0,5 UV-I 64 W/m 7,4 C 9,3 C 0,9 km/h (0 Bft)
09.11.2018 13:00 24,0 C 9,4 C 59 % 88 % 1016,7 hPa 0,0 l/m 0,6 km/h (0 Bft) SO 0,00 h 0,0 UV-I 44 W/m 7,4 C 9,4 C 1,5 km/h (1 Bft)
09.11.2018 14:00 24,0 C 9,4 C 59 % 87 % 1016,4 hPa 0,0 l/m 0,5 km/h (0 Bft) SO 0,00 h 0,0 UV-I 51 W/m 7,4 C 9,4 C 1,2 km/h (1 Bft)
09.11.2018 15:00 24,0 C 9,5 C 60 % 87 % 1016,1 hPa 0,0 l/m 0,4 km/h (0 Bft) S 0,00 h 0,0 UV-I 26 W/m 7,4 C 9,5 C 1,0 km/h (0 Bft)
09.11.2018 16:00 24,1 C 9,1 C 60 % 88 % 1016,1 hPa 0,0 l/m 0,1 km/h (0 Bft) S 0,00 h 0,0 UV-I 7 W/m 7,2 C 9,1 C 0,4 km/h (0 Bft)
09.11.2018 17:00 24,0 C 8,7 C 60 % 89 % 1016,0 hPa 0,0 l/m 0,0 km/h (0 Bft) N 0,00 h 0,0 UV-I 0 W/m 7,0 C 8,7 C 0,0 km/h (0 Bft)
09.11.2018 18:00 24,0 C 8,5 C 60 % 90 % 1016,1 hPa 0,0 l/m 0,1 km/h (0 Bft) SO 0,00 h 0,0 UV-I 0 W/m 6,9 C 8,5 C 0,1 km/h (0 Bft)
09.11.2018 19:00 24,0 C 8,3 C 60 % 90 % 1016,0 hPa 0,0 l/m 0,0 km/h (0 Bft) N 0,00 h 0,0 UV-I 0 W/m 6,8 C 8,3 C 0,0 km/h (0 Bft)
09.11.2018 20:00 24,0 C 8,1 C 60 % 91 % 1015,9 hPa 0,0 l/m 0,4 km/h (0 Bft) SO 0,00 h 0,0 UV-I 0 W/m 6,7 C 8,1 C 1,0 km/h (0 Bft)
09.11.2018 21:00 24,1 C 7,8 C 60 % 92 % 1015,8 hPa 0,0 l/m 0,1 km/h (0 Bft) SO 0,00 h 0,0 UV-I 0 W/m 6,6 C 7,8 C 0,4 km/h (0 Bft)
09.11.2018 22:00 24,1 C 7,6 C 60 % 93 % 1015,6 hPa 0,0 l/m 0,2 km/h (0 Bft) O-SO 0,00 h 0,0 UV-I 0 W/m 6,5 C 7,6 C 0,6 km/h (0 Bft)
09.11.2018 23:00 24,1 C 7,4 C 61 % 93 % 1014,9 hPa 0,0 l/m 1,5 km/h (1 Bft) SO 0,00 h 0,0 UV-I 0 W/m 6,4 C 7,3 C 3,5 km/h (1 Bft)
10.11.2018 00:00 24,9 C 7,3 C 59 % 94 % 1014,5 hPa 0,0 l/m 2,4 km/h (1 Bft) SO 0,00 h 0,0 UV-I 0 W/m 6,3 C 7,2 C 5,7 km/h (1 Bft)
10.11.2018 01:00 25,1 C 7,2 C 58 % 94 % 1014,1 hPa 0,0 l/m 2,1 km/h (1 Bft) SO 0,00 h 0,0 UV-I 0 W/m 6,2 C 7,2 C 5,4 km/h (1 Bft)
10.11.2018 02:00 25,1 C 6,9 C 58 % 94 % 1014,0 hPa 0,0 l/m 1,8 km/h (1 Bft) SO 0,00 h 0,0 UV-I 0 W/m 6,0 C 6,9 C 4,7 km/h (1 Bft)
10.11.2018 03:00 25,1 C 6,9 C 59 % 94 % 1013,5 hPa 0,0 l/m 2,6 km/h (1 Bft) SO 0,00 h 0,0 UV-I 0 W/m 6,0 C 6,8 C 6,0 km/h (2 Bft)
10.11.2018 04:00 25,1 C 6,9 C 59 % 94 % 1013,4 hPa 0,0 l/m 0,1 km/h (0 Bft) O-SO 0,00 h 0,0 UV-I 0 W/m 6,0 C 6,9 C 0,2 km/h (0 Bft)
10.11.2018 05:00 25,2 C 7,1 C 60 % 93 % 1012,8 hPa 0,0 l/m 0,2 km/h (0 Bft) O-SO 0,00 h 0,0 UV-I 0 W/m 6,1 C 7,1 C 0,7 km/h (0 Bft)
10.11.2018 06:00 25,2 C 7,2 C 60 % 93 % 1012,6 hPa 0,0 l/m 0,9 km/h (0 Bft) SO 0,00 h 0,0 UV-I 0 W/m 6,2 C 7,2 C 2,2 km/h (1 Bft)
10.11.2018 07:00 24,7 C 7,3 C 61 % 93 % 1012,6 hPa 0,0 l/m 1,8 km/h (1 Bft) SO 0,00 h 0,0 UV-I 12 W/m 6,2 C 7,3 C 4,8 km/h (1 Bft)
10.11.2018 08:00 24,0 C 7,6 C 62 % 92 % 1012,6 hPa 0,0 l/m 1,7 km/h (1 Bft) SO 0,00 h 0,0 UV-I 42 W/m 6,3 C 7,4 C 3,3 km/h (1 Bft)
10.11.2018 09:00 24,1 C 8,0 C 61 % 91 % 1012,4 hPa 0,0 l/m 2,7 km/h (1 Bft) SO 0,25 h 0,6 UV-I 110 W/m 6,6 C 7,8 C 6,1 km/h (2 Bft)
10.11.2018 10:00 25,0 C 9,5 C 57 % 86 % 1012,3 hPa 0,0 l/m 2,7 km/h (1 Bft) SO 0,87 h 1,0 UV-I 271 W/m 7,3 C 9,5 C 6,3 km/h (2 Bft)
10.11.2018 11:00 24,8 C 9,1 C 51 % 86 % 1012,3 hPa 0,0 l/m 1,1 km/h (0 Bft) O 0,00 h 0,8 UV-I 119 W/m 6,9 C 9,1 C 3,7 km/h (1 Bft)
10.11.2018 12:00 24,6 C 9,3 C 53 % 86 % 1011,9 hPa 0,0 l/m 1,9 km/h (1 Bft) O 0,72 h 0,9 UV-I 171 W/m 7,1 C 9,3 C 5,4 km/h (1 Bft)
10.11.2018 13:00 24,7 C 10,1 C 52 % 84 % 1011,6 hPa 0,0 l/m 1,4 km/h (1 Bft) O-NO 0,93 h 0,9 UV-I 208 W/m 7,5 C 10,1 C 4,6 km/h (1 Bft)
10.11.2018 14:00 24,9 C 10,2 C 52 % 83 % 1011,3 hPa 0,0 l/m 2,6 km/h (1 Bft) O-SO 0,82 h 0,6 UV-I 209 W/m 7,4 C 10,1 C 6,9 km/h (2 Bft)
10.11.2018 15:00 24,6 C 9,7 C 47 % 84 % 1011,3 hPa 0,0 l/m 1,8 km/h (1 Bft) O-NO 0,03 h 0,0 UV-I 81 W/m 7,0 C 9,7 C 5,4 km/h (1 Bft)
10.11.2018 16:00 24,2 C 8,1 C 47 % 87 % 1011,9 hPa 0,0 l/m 1,2 km/h (1 Bft) O-NO 0,00 h 0,0 UV-I 11 W/m 6,1 C 8,1 C 5,0 km/h (1 Bft)
10.11.2018 17:00 23,9 C 7,4 C 49 % 90 % 1012,1 hPa 0,0 l/m 0,8 km/h (0 Bft) O-NO 0,00 h 0,0 UV-I 0 W/m 5,9 C 7,4 C 3,7 km/h (1 Bft)
10.11.2018 18:00 23,8 C 7,3 C 51 % 92 % 1012,3 hPa 0,0 l/m 0,6 km/h (0 Bft) O 0,00 h 0,0 UV-I 0 W/m 6,0 C 7,3 C 2,6 km/h (1 Bft)
10.11.2018 19:00 23,7 C 7,3 C 53 % 92 % 1012,3 hPa 0,0 l/m 0,5 km/h (0 Bft) O-NO 0,00 h 0,0 UV-I 0 W/m 6,1 C 7,3 C 2,1 km/h (1 Bft)
10.11.2018 20:00 23,7 C 7,3 C 54 % 92 % 1012,1 hPa 0,0 l/m 0,3 km/h (0 Bft) O-NO 0,00 h 0,0 UV-I 0 W/m 6,1 C 7,3 C 1,4 km/h (1 Bft)
10.11.2018 21:00 23,8 C 7,2 C 54 % 92 % 1011,8 hPa 0,0 l/m 0,7 km/h (0 Bft) O 0,00 h 0,0 UV-I 0 W/m 6,0 C 7,2 C 2,8 km/h (1 Bft)
10.11.2018 22:00 23,8 C 7,2 C 55 % 93 % 1011,9 hPa 0,0 l/m 0,1 km/h (0 Bft) SO 0,00 h 0,0 UV-I 0 W/m 6,1 C 7,2 C 0,3 km/h (0 Bft)
10.11.2018 23:00 23,8 C 7,2 C 55 % 92 % 1011,9 hPa 0,0 l/m 0,4 km/h (0 Bft) O 0,00 h 0,0 UV-I 0 W/m 6,0 C 7,2 C 2,0 km/h (1 Bft)
11.11.2018 00:00 23,6 C 7,2 C 57 % 92 % 1011,8 hPa 0,0 l/m 0,2 km/h (0 Bft) O 0,00 h 0,0 UV-I 0 W/m 6,0 C 7,2 C 0,9 km/h (0 Bft)
11.11.2018 01:00 23,6 C 7,3 C 58 % 92 % 1011,6 hPa 0,0 l/m 0,0 km/h (0 Bft) O 0,00 h 0,0 UV-I 0 W/m 6,0 C 7,3 C 0,1 km/h (0 Bft)
11.11.2018 02:00 23,4 C 7,3 C 59 % 92 % 1012,0 hPa 0,0 l/m 0,3 km/h (0 Bft) SO 0,00 h 0,0 UV-I 0 W/m 6,1 C 7,3 C 1,1 km/h (0 Bft)
11.11.2018 03:00 23,4 C 7,1 C 60 % 92 % 1012,2 hPa 0,0 l/m 0,2 km/h (0 Bft) O-SO 0,00 h 0,0 UV-I 0 W/m 5,9 C 7,1 C 1,3 km/h (1 Bft)
11.11.2018 04:00 23,4 C 6,8 C 60 % 92 % 1013,0 hPa 0,0 l/m 1,4 km/h (1 Bft) S 0,00 h 0,0 UV-I 0 W/m 5,7 C 6,8 C 3,3 km/h (1 Bft)
11.11.2018 05:00 23,4 C 6,4 C 60 % 94 % 1012,8 hPa 0,0 l/m 0,2 km/h (0 Bft) S 0,00 h 0,0 UV-I 0 W/m 5,5 C 6,4 C 0,8 km/h (0 Bft)
11.11.2018 06:00 23,6 C 6,5 C 60 % 95 % 1013,0 hPa 0,0 l/m 0,2 km/h (0 Bft) SO 0,00 h 0,0 UV-I 0 W/m 5,8 C 6,5 C 0,6 km/h (0 Bft)
11.11.2018 07:00 23,6 C 6,7 C 59 % 95 % 1013,2 hPa 0,0 l/m 0,5 km/h (0 Bft) S-SO 0,00 h 0,0 UV-I 8 W/m 6,0 C 6,7 C 1,5 km/h (1 Bft)
11.11.2018 08:00 23,7 C 6,8 C 59 % 95 % 1013,2 hPa 0,0 l/m 0,0 km/h (0 Bft) N 0,13 h 0,5 UV-I 47 W/m 6,1 C 6,8 C 0,0 km/h (0 Bft)
11.11.2018 09:00 24,9 C 8,6 C 56 % 93 % 1013,9 hPa 0,0 l/m 2,2 km/h (1 Bft) S 0,58 h 0,6 UV-I 157 W/m 7,5 C 8,5 C 4,4 km/h (1 Bft)
11.11.2018 10:00 24,7 C 8,1 C 56 % 92 % 1014,8 hPa 0,0 l/m 2,8 km/h (1 Bft) S 0,00 h 0,5 UV-I 51 W/m 6,9 C 8,0 C 6,6 km/h (2 Bft)
11.11.2018 11:00 24,3 C 8,3 C 55 % 94 % 1015,5 hPa 0,0 l/m 1,8 km/h (1 Bft) W-SW 0,02 h 0,6 UV-I 100 W/m 7,4 C 8,3 C 4,6 km/h (1 Bft)
11.11.2018 12:00 24,1 C 9,0 C 53 % 92 % 1015,7 hPa 0,0 l/m 4,0 km/h (1 Bft) S 0,00 h 0,6 UV-I 91 W/m 7,8 C 8,5 C 8,3 km/h (2 Bft)
11.11.2018 13:00 23,9 C 9,2 C 50 % 92 % 1015,4 hPa 0,0 l/m 6,7 km/h (2 Bft) S 0,03 h 0,6 UV-I 96 W/m 8,0 C 8,4 C 12,7 km/h (3 Bft)
11.11.2018 14:00 23,9 C 9,6 C 52 % 91 % 1015,6 hPa 0,0 l/m 5,3 km/h (1 Bft) S 0,02 h 0,5 UV-I 82 W/m 8,3 C 9,1 C 10,2 km/h (2 Bft)
11.11.2018 15:00 23,9 C 10,0 C 53 % 90 % 1016,1 hPa 0,0 l/m 1,5 km/h (1 Bft) S 0,08 h 0,0 UV-I 57 W/m 8,4 C 9,9 C 4,0 km/h (1 Bft)
11.11.2018 16:00 23,9 C 9,5 C 54 % 91 % 1016,5 hPa 0,0 l/m 0,4 km/h (0 Bft) S 0,00 h 0,0 UV-I 9 W/m 8,0 C 9,5 C 1,3 km/h (1 Bft)
11.11.2018 17:00 23,8 C 8,9 C 55 % 91 % 1016,7 hPa 0,0 l/m 0,0 km/h (0 Bft) N 0,00 h 0,0 UV-I 0 W/m 7,5 C 8,9 C 0,0 km/h (0 Bft)
11.11.2018 18:00 23,7 C 7,9 C 56 % 91 % 1017,1 hPa 0,0 l/m 0,0 km/h (0 Bft) N 0,00 h 0,0 UV-I 0 W/m 6,5 C 7,9 C 0,0 km/h (0 Bft)
11.11.2018 19:00 23,7 C 7,2 C 57 % 93 % 1017,7 hPa 0,0 l/m 0,0 km/h (0 Bft) N 0,00 h 0,0 UV-I 0 W/m 6,2 C 7,2 C 0,0 km/h (0 Bft)
11.11.2018 20:00 23,7 C 6,4 C 57 % 93 % 1017,9 hPa 0,0 l/m 0,0 km/h (0 Bft) N 0,00 h 0,0 UV-I 0 W/m 5,4 C 6,4 C 0,0 km/h (0 Bft)
11.11.2018 21:00 23,7 C 5,4 C 58 % 93 % 1018,2 hPa 0,0 l/m 0,0 km/h (0 Bft) N 0,00 h 0,0 UV-I 0 W/m 4,3 C 5,4 C 0,0 km/h (0 Bft)
11.11.2018 22:00 23,7 C 4,4 C 58 % 93 % 1018,3 hPa 0,0 l/m 0,0 km/h (0 Bft) N 0,00 h 0,0 UV-I 0 W/m 3,4 C 4,4 C 0,0 km/h (0 Bft)
11.11.2018 23:00 23,6 C 3,8 C 58 % 94 % 1018,8 hPa 0,0 l/m 0,0 km/h (0 Bft) N 0,00 h 0,0 UV-I 0 W/m 2,9 C 3,8 C 0,0 km/h (0 Bft)
Min-Datum _ 07.11.18 07.11.18 10.11.18 06.11.18 06.11.18 - 05.11.18 - - - - 07.11.18 07.11.18 05.11.18
_ Min-Zeit 03:55 07:25 15:43 11:51 19:48 - 00:01 - - - - 07:26 07:26 00:05
Minimum _ 23,3 C 3,0 C 44 % 76 % 1010,0 hPa - 0,0 km/h (0 Bft) - - - - 2,3 C 3,0 C 0,0 km/h (0 Bft)
Max-Datum _ 06.11.18 07.11.18 05.11.18 07.11.18 08.11.18 07.11.18 05.11.18 - 06.11.18 06.11.18 07.11.18 07.11.18 07.11.18 06.11.18
_ Max-Zeit 12:15 14:45 03:43 09:18 10:54 06:29 09:38 - 09:26 11:26 12:52 12:53 14:45 12:51
Maximum _ 26,2 C 14,8 C 64 % 97 % 1022,8 hPa 0,2 l/m 14,5 km/h
O (3 Bft)
- 0,12 h 1,5 UV-I 432 W/m 11,5 C 14,8 C 25,7 km/h
O-NO (4 Bft)
Durchschnitt _ 24,1 C 8,6 C 58 % 91 % 1014,5 hPa #0,2 l/m 1,1 km/h (1 Bft) O-NO #19:37 h 0,7 UV-I 109 W/m 7,2 C 8,6 C 3,2 km/h (1 Bft)